Weather History for Wichita Falls, TX

Change the Weather History Date:

Friday, March 28, 2014

  Actual Average Record
Temperature  
Mean Temperature 54 °F 58 °F  
Max Temperature 64 °F 71 °F 96 °F (1928)
Min Temperature 43 °F 44 °F 23 °F (1931)
Degree Days  
Heating Degree Days 11 9  
Month to date heating degree days 436 334  
Since 1 July heating degree days 3206 2780  
Cooling Degree Days 0 1  
Month to date cooling degree days 9 14  
Year to date cooling degree days 9 17  
Growing Degree Days 6 (Base 50)    
Moisture  
Dew Point 41 °F    
Average Humidity 60    
Maximum Humidity 77    
Minimum Humidity 43    
Precipitation  
Precipitation 0.00 in 0.07 in 1.09 in (1938)
Month to date precipitation 2.18 2.01  
Year to date precipitation 2.53 4.90  
Snow  
Snow 0.00 in 0.00 in - ()
Month to date snowfall T 0.5  
Since 1 July snowfall 5.0 3.9  
Snow Depth 0.00 in    
Sea Level Pressure  
Sea Level Pressure 29.86 in    
Wind  
Wind Speed 14 mph (NNE)    
Max Wind Speed 25 mph    
Max Gust Speed 30 mph    
Visibility 10 miles    
Events      
T = Trace of Precipitation, MM = Missing Value Source: NWS Daily Summary

Daily Weather History Graph

Daily Weather History Graph

Search for Another Location

Airport:

Trip Planner

Search our weather history database for the weather conditions in past years. The results will help you decide how hot, cold, wet, or windy it might be!

Date:

Astronomy

Mar. 28, 2014 Rise Set
Actual Time 7:26 AM CDT 7:51 PM CDT
Civil Twilight 7:01 AM CDT 8:16 PM CDT
Nautical Twilight 6:32 AM CDT 8:46 PM CDT
Astronomical Twilight 6:02 AM CDT 9:16 PM CDT
Moon 5:52 AM CDT (3/28) 5:54 PM CDT (3/28)
Length of Visible Light 13h 15m
Length of Day
12h 25m
Waning Crescent, 6% of the Moon is Illuminated
Mar 28
Waning Crescent
Mar 30
New
Apr 7
First Quarter
Apr 15
Full
Apr 22
Last Quarter

Hourly Weather History & Observations

Time (CDT) Temp. Windchill Dew Point Humidity Pressure Visibility Wind Dir Wind Speed Gust Speed Precip Events Conditions
12:52 AM 57.9 °F - 37.9 °F 47% 29.71 in 10.0 mi North 6.9 mph - N/A   Clear
1:52 AM 54.0 °F - 42.1 °F 64% 29.72 in 10.0 mi North 10.4 mph - N/A   Clear
2:52 AM 55.9 °F - 44.1 °F 64% 29.71 in 10.0 mi NNE 10.4 mph - N/A   Clear
3:52 AM 54.0 °F - 44.1 °F 69% 29.75 in 10.0 mi NE 9.2 mph - N/A   Clear
4:52 AM 53.1 °F - 42.1 °F 66% 29.71 in 10.0 mi NE 10.4 mph - N/A   Clear
5:52 AM 48.9 °F - 41.0 °F 74% 29.74 in 10.0 mi NNE 9.2 mph - N/A   Clear
6:52 AM 51.1 °F - 43.0 °F 74% 29.77 in 10.0 mi NE 6.9 mph - N/A   Clear
7:18 AM 50.0 °F - 42.8 °F 76% 29.79 in 10.0 mi NNE 9.2 mph - N/A   Mostly Cloudy
7:52 AM 52.0 °F - 43.0 °F 71% 29.78 in 10.0 mi NE 12.7 mph - N/A   Mostly Cloudy
8:22 AM 53.6 °F - 42.8 °F 67% 29.82 in 10.0 mi NNE 13.8 mph - N/A   Overcast
8:52 AM 54.0 °F - 41.0 °F 62% 29.80 in 10.0 mi NE 20.7 mph - N/A   Overcast
9:52 AM 55.9 °F - 41.0 °F 57% 29.82 in 10.0 mi NE 19.6 mph - N/A   Overcast
10:52 AM 55.0 °F - 41.0 °F 59% 29.87 in 10.0 mi NNE 17.3 mph - N/A   Overcast
11:52 AM 57.0 °F - 41.0 °F 55% 29.87 in 10.0 mi North 16.1 mph - N/A   Mostly Cloudy
12:52 PM 59.0 °F - 41.0 °F 51% 29.88 in 10.0 mi NNE 12.7 mph 21.9 mph N/A   Scattered Clouds
1:52 PM 62.1 °F - 44.1 °F 52% 29.88 in 10.0 mi North 11.5 mph - N/A   Scattered Clouds
2:03 PM 62.6 °F - 44.6 °F 52% 29.90 in 10.0 mi North 18.4 mph - N/A   Mostly Cloudy
2:52 PM 63.0 °F - 43.0 °F 48% 29.89 in 10.0 mi North 23.0 mph - N/A   Overcast
3:52 PM 61.0 °F - 41.0 °F 48% 29.90 in 10.0 mi NNE 21.9 mph - N/A   Overcast
3:59 PM 60.8 °F - 41.0 °F 48% 29.92 in 10.0 mi North 19.6 mph - N/A   Overcast
4:52 PM 62.1 °F - 39.0 °F 43% 29.91 in 10.0 mi NNE 18.4 mph 26.5 mph N/A   Clear
5:52 PM 62.1 °F - 39.0 °F 43% 29.93 in 10.0 mi North 20.7 mph - N/A   Scattered Clouds
6:52 PM 59.0 °F - 37.0 °F 44% 29.97 in 10.0 mi NNE 18.4 mph - N/A   Clear
7:52 PM 55.0 °F - 37.9 °F 53% 29.99 in 10.0 mi North 12.7 mph - N/A   Clear
8:52 PM 53.1 °F - 37.0 °F 55% 30.03 in 10.0 mi North 10.4 mph - N/A   Scattered Clouds
9:52 PM 51.1 °F - 37.0 °F 59% 30.06 in 10.0 mi North 12.7 mph - N/A   Clear
10:52 PM 48.9 °F - 36.0 °F 61% 30.11 in 10.0 mi NNE 10.4 mph - N/A   Clear
11:52 PM 46.0 °F 42.5 °F 36.0 °F 68% 30.11 in 10.0 mi North 6.9 mph - N/A   Clear